Location: Unspecified
(50.8500°N, 5.6830°E)
Time: 19:13:50
(UTC+01:00)

ISS - Visible Passes

Search period start: 25 March 2019 00:00
Search period end: 04 April 2019 01:00
Orbit: 408 x 411 km, 51.6° (Epoch: 25 March)

Date Brightness Start Highest point End Pass type
(mag) Time Alt. Az. Time Alt. Az. Time Alt. Az.
25 Mar -3.7 20:16:42 10° WSW 20:19:58 58° SSE 20:21:38 25° E visible
25 Mar -1.3 21:53:14 10° W 21:54:25 20° W 21:54:25 20° W visible
26 Mar -3.9 21:02:35 10° W 21:05:53 81° N 21:06:02 78° NNE visible
27 Mar -3.9 20:11:56 10° WSW 20:15:15 87° SSE 20:17:33 19° ENE visible
27 Mar -1.8 21:48:36 10° W 21:50:19 28° WNW 21:50:19 28° WNW visible
28 Mar -3.8 20:57:57 10° W 21:01:15 75° N 21:01:45 59° ENE visible
29 Mar -3.7 20:07:15 10° W 20:10:34 77° N 20:13:09 16° E visible
29 Mar -2.2 21:43:54 10° WNW 21:45:55 34° W 21:45:55 34° W visible
30 Mar -3.9 20:53:13 10° W 20:56:33 85° N 20:57:16 52° E visible
30 Mar -0.5 22:29:55 10° W 22:30:01 11° W 22:30:01 11° W visible
31 Mar -3.7 21:02:32 10° W 21:05:51 77° N 21:08:35 14° E visible
31 Mar -2.4 22:39:10 10° W 22:41:21 34° WSW 22:41:21 34° WSW visible
01 Apr -3.8 21:48:27 10° WNW 21:51:45 70° SSW 21:52:40 43° SE visible
02 Apr -3.8 20:57:44 10° WNW 21:01:03 88° SSW 21:03:59 13° ESE visible
02 Apr -2.1 22:34:30 10° W 22:36:44 26° SW 22:36:44 26° SW visible
03 Apr -3.1 21:43:40 10° W 21:46:49 42° SSW 21:48:04 28° SSE visible
